Alliance, NE

2:33 PM MDT on June 25, 2017 (GMT -0600)
Alliance Municipal

Weather History for KAIA - May, 2013

Change the Weather History Date:

Saturday, May 18, 2013

  Actual Average Record
Temperature  
Mean Temperature 63 °F 56 °F  
Max Temperature 76 °F 71 °F 95 °F (1934)
Min Temperature 50 °F 40 °F 27 °F (1946)
Degree Days  
Heating Degree Days 2 10  
Month to date heating degree days 210 228  
Since 1 July heating degree days 7040 7117  
Cooling Degree Days 0 0  
Month to date cooling degree days 16 0  
Year to date cooling degree days 16 0  
Growing Degree Days 14 (Base 50)    
Moisture  
Dew Point 58 °F    
Average Humidity 82    
Maximum Humidity 100    
Minimum Humidity 64    
Precipitation  
Precipitation 0.29 in 0.07 in 0.92 in (2017)
Month to date precipitation 0.95 1.35  
Year to date precipitation 3.77 4.21  
Sea Level Pressure  
Sea Level Pressure 29.75 in    
Wind  
Wind Speed 8 mph (ENE)    
Max Wind Speed 25 mph    
Max Gust Speed 30 mph    
Visibility 7 miles    
Events Fog , Rain , Thunderstorm    
T = Trace of Precipitation, MM = Missing Value Source: NWS Daily Summary

Daily Weather History Graph

Daily Weather History Graph

Search for Another Location

Airport or City:

Trip Planner

Search our weather history database for the weather conditions in past years. The results will help you decide how hot, cold, wet, or windy it might be!

Date:

Astronomy

May. 18, 2013 Rise Set
Actual Time 5:27 AM MDT 8:08 PM MDT
Civil Twilight 4:55 AM MDT 8:40 PM MDT
Nautical Twilight 4:14 AM MDT 9:21 PM MDT
Astronomical Twilight 3:28 AM MDT 10:07 PM MDT
Moon 1:07 PM MDT (5/18) 1:28 AM MDT (5/18)
Length of Visible Light 15h 45m
Length of Day
14h 40m
First Quarter, 56% of the Moon is Illuminated
May 18
First Quarter
May 24
Full
May 31
Last Quarter
Jun 8
New
Jun 16
First Quarter

Hourly Weather History & Observations

Time (MDT) Temp. Dew Point Humidity Pressure Visibility Wind Dir Wind Speed Gust Speed Precip Events Conditions
12:53 AM 64.9 °F 57.0 °F 75% 29.67 in 10.0 mi ENE 18.4 mph - N/A Thunderstorm Overcast
1:26 AM 62.6 °F 55.4 °F 77% 29.81 in 10.0 mi East 16.1 mph - N/A   Mostly Cloudy
1:53 AM 62.1 °F 55.0 °F 78% 29.65 in 10.0 mi East 20.7 mph 27.6 mph N/A   Partly Cloudy
2:53 AM 61.0 °F 55.9 °F 83% 29.67 in 10.0 mi ESE 16.1 mph - N/A   Partly Cloudy
3:53 AM 60.1 °F 57.0 °F 90% 29.69 in 10.0 mi ESE 10.4 mph - N/A   Clear
4:53 AM 59.0 °F 57.9 °F 96% 29.70 in 5.0 mi SE 4.6 mph - N/A   Clear
5:37 AM 59.0 °F 57.2 °F 94% 29.79 in 2.5 mi SE 6.9 mph - N/A   Partly Cloudy
5:49 AM 59.0 °F 57.2 °F 94% 29.80 in 1.8 mi SSE 4.6 mph - N/A   Mostly Cloudy
5:53 AM 57.9 °F 57.9 °F 100% 29.72 in 1.5 mi SSE 5.8 mph - N/A   Mostly Cloudy
6:25 AM 60.8 °F 60.8 °F 100% 29.80 in 1.0 mi East 9.2 mph - N/A   Overcast
6:32 AM 60.8 °F 60.8 °F 100% 29.80 in 0.5 mi ESE 10.4 mph - N/A Fog Fog
6:53 AM 61.0 °F 61.0 °F 100% 29.71 in 0.2 mi ESE 9.2 mph - N/A Fog Fog
7:35 AM 62.6 °F 62.6 °F 100% 29.83 in 1.2 mi SSE 3.5 mph - N/A   Overcast
7:44 AM 62.6 °F 62.6 °F 100% 29.83 in 1.8 mi Calm Calm - N/A   Overcast
7:53 AM 63.0 °F 62.1 °F 97% 29.73 in 2.5 mi East 3.5 mph - N/A   Overcast
7:59 AM 62.6 °F 62.6 °F 100% 29.83 in 4.0 mi Calm Calm - N/A   Overcast
8:04 AM 62.6 °F 62.6 °F 100% 29.83 in 1.0 mi North 5.8 mph - N/A   Overcast
8:11 AM 60.8 °F 60.8 °F 100% 29.84 in 0.2 mi North 8.1 mph - N/A Fog Fog
8:22 AM 60.8 °F 60.8 °F 100% 29.84 in 1.2 mi North 5.8 mph - N/A   Overcast
8:26 AM 60.8 °F 60.8 °F 100% 29.84 in 2.0 mi NNW 5.8 mph - N/A   Overcast
8:45 AM 62.6 °F 60.8 °F 94% 29.84 in 3.0 mi NNE 4.6 mph - N/A   Overcast
8:53 AM 63.0 °F 61.0 °F 93% 29.73 in 4.0 mi ENE 4.6 mph - N/A   Overcast
9:16 AM 64.4 °F 62.6 °F 94% 29.84 in 5.0 mi East 5.8 mph - N/A   Overcast
9:51 AM 66.2 °F 62.6 °F 88% 29.85 in 8.0 mi SSE 5.8 mph - N/A   Overcast
9:53 AM 68.0 °F 62.1 °F 81% 29.73 in 9.0 mi SE 6.9 mph - N/A   Overcast
10:32 AM 69.8 °F 60.8 °F 73% 29.83 in 10.0 mi SE 4.6 mph - N/A   Mostly Cloudy
10:53 AM 69.1 °F 61.0 °F 75% 29.71 in 10.0 mi SW 5.8 mph - N/A   Mostly Cloudy
11:53 AM 72.0 °F 60.1 °F 66% 29.70 in 10.0 mi Variable 4.6 mph - N/A   Mostly Cloudy
12:53 PM 73.4 °F 60.8 °F 65% 29.80 in 10.0 mi NNW 9.2 mph - N/A   Clear
1:53 PM 73.0 °F 61.0 °F 66% 29.67 in 10.0 mi NNE 9.2 mph - N/A   Clear
2:50 PM 75.2 °F 62.6 °F 65% 29.77 in 10.0 mi NNE 11.5 mph 19.6 mph N/A Thunderstorm Clear
2:53 PM 73.9 °F 61.0 °F 64% 29.66 in 10.0 mi NNE 10.4 mph 19.6 mph N/A Thunderstorm Clear
3:53 PM 73.0 °F 60.1 °F 64% 29.62 in 10.0 mi NE 16.1 mph - N/A   Clear
4:14 PM 71.6 °F 60.8 °F 69% 29.70 in 10.0 mi ENE 12.7 mph - N/A Thunderstorm Partly Cloudy
4:24 PM 71.6 °F 60.8 °F 69% 29.70 in 10.0 mi NE 9.2 mph - N/A Thunderstorm Partly Cloudy
4:53 PM 69.1 °F 61.0 °F 75% 29.60 in 9.0 mi East 20.7 mph - 0.01 in Rain , Thunderstorm Light Rain
5:21 PM 69.8 °F 55.4 °F 60% 29.71 in 10.0 mi WNW 5.8 mph 21.9 mph 0.00 in   Overcast
5:53 PM 69.1 °F 57.9 °F 68% 29.59 in 10.0 mi Calm Calm - 0.00 in Thunderstorm Overcast
6:33 PM 62.6 °F 48.2 °F 59% 29.77 in 10.0 mi WSW 18.4 mph 27.6 mph 0.00 in Rain , Thunderstorm Light Rain
6:53 PM 61.0 °F 50.0 °F 67% 29.71 in 9.0 mi South 15.0 mph 20.7 mph 0.02 in Rain , Thunderstorm Light Thunderstorms and Rain
7:34 PM 57.2 °F 51.8 °F 82% 29.82 in 9.0 mi WNW 15.0 mph 21.9 mph 0.03 in Rain Light Rain
7:53 PM 57.0 °F 52.0 °F 83% 29.75 in 10.0 mi NNW 6.9 mph - 0.04 in Rain Light Rain
8:15 PM 55.4 °F 53.6 °F 94% 29.82 in 7.0 mi NE 8.1 mph - 0.06 in Rain , Thunderstorm Rain
8:28 PM 55.4 °F 53.6 °F 94% 29.81 in 7.0 mi East 10.4 mph - 0.09 in Rain , Thunderstorm Rain
8:49 PM 55.4 °F 53.6 °F 94% 29.81 in 8.0 mi East 8.1 mph - 0.15 in Rain Rain
8:53 PM 55.9 °F 53.1 °F 90% 29.72 in 8.0 mi East 8.1 mph - 0.15 in Rain Rain
9:40 PM 55.4 °F 53.6 °F 94% 29.73 in 8.0 mi North 20.7 mph - 0.07 in Rain Light Rain
9:53 PM 55.9 °F 53.1 °F 90% 29.67 in 10.0 mi Variable 4.6 mph - 0.07 in Rain Light Rain
10:53 PM 54.0 °F 51.1 °F 90% 29.70 in 10.0 mi West 10.4 mph - 0.00 in   Partly Cloudy
11:53 PM 53.6 °F 51.8 °F 94% 29.74 in 10.0 mi North 8.1 mph - N/A   Clear